Fallon, NV

6:30 AM PDT on August 30, 2016 (GMT -0700)
Fallon Naval Air Station

Weather History for KNFL - March, 2013

Change the Weather History Date:

Monday, March 4, 2013

  Actual Average Record
Temperature  
Mean Temperature 42 °F -  
Max Temperature 55 °F 53 °F 71 °F (1929)
Min Temperature 30 °F 26 °F 3 °F (1948)
Degree Days  
Heating Degree Days 22    
Moisture  
Dew Point 33 °F    
Average Humidity 79    
Maximum Humidity 100    
Minimum Humidity 25    
Precipitation  
Precipitation 0.01 in - - ()
Sea Level Pressure  
Sea Level Pressure 30.02 in    
Wind  
Wind Speed 2 mph (NE)    
Max Wind Speed 7 mph    
Max Gust Speed -    
Visibility 7 miles    
Events Fog    
Averages and records for this station are not official NWS values.
T = Trace of Precipitation, MM = Missing Value Source: NWS Daily Summary

Daily Weather History Graph

Daily Weather History Graph

Search for Another Location

Airport or City:

Trip Planner

Search our weather history database for the weather conditions in past years. The results will help you decide how hot, cold, wet, or windy it might be!

Date:

Astronomy

Mar. 04, 2013 Rise Set
Actual Time 6:22 AM PST 5:50 PM PST
Civil Twilight 5:55 AM PST 6:17 PM PST
Nautical Twilight 5:24 AM PST 6:48 PM PST
Astronomical Twilight 4:53 AM PST 7:19 PM PST
Moon 12:36 AM PST (3/4) 10:38 AM PST (3/4)
Length of Visible Light 12h 21m
Length of Day
11h 28m
Waning Gibbous, 51% of the Moon is Illuminated
Mar 4
Waning Gibbous
Mar 4
Last Quarter
Mar 11
New
Mar 19
First Quarter
Mar 27
Full

Hourly Weather History & Observations

Time (PST) Temp. Windchill Dew Point Humidity Pressure Visibility Wind Dir Wind Speed Gust Speed Precip Events Conditions
12:56 AM 41.0 °F - 39.0 °F 93% 29.96 in 10.0 mi Calm Calm - N/A   Overcast
1:56 AM 39.9 °F 37.8 °F 37.0 °F 89% 29.96 in 10.0 mi SE 3.5 mph - N/A   Scattered Clouds
2:56 AM 37.0 °F 34.5 °F 36.0 °F 96% 29.97 in 10.0 mi NNE 3.5 mph - N/A   Clear
3:23 AM 35.6 °F 31.7 °F 33.8 °F 93% 30.08 in 1.5 mi NNW 4.6 mph - N/A   Scattered Clouds
3:25 AM 37.4 °F 33.8 °F 35.6 °F 93% 30.08 in 0.5 mi NNW 4.6 mph - N/A Fog Fog
3:33 AM 37.4 °F 33.8 °F 35.6 °F 93% 30.08 in 0.2 mi WNW 4.6 mph - N/A Fog Fog
3:56 AM 35.1 °F - 35.1 °F 100% 29.99 in 0.2 mi Calm Calm - N/A Fog Fog
3:59 AM 35.6 °F - 35.6 °F 100% 30.08 in 1.2 mi Calm Calm - N/A   Mostly Cloudy
4:01 AM 35.6 °F - 35.6 °F 100% 30.08 in 4.0 mi Calm Calm - N/A   Mostly Cloudy
4:09 AM 35.6 °F 32.8 °F 33.8 °F 93% 30.08 in 10.0 mi NNE 3.5 mph - N/A   Scattered Clouds
4:56 AM 34.0 °F - 30.0 °F 85% 30.00 in 10.0 mi Calm Calm - N/A   Clear
5:56 AM 32.0 °F 28.7 °F 28.0 °F 85% 30.01 in 10.0 mi North 3.5 mph - N/A   Clear
6:09 AM 30.2 °F 26.7 °F 28.4 °F 93% 30.11 in 10.0 mi NNE 3.5 mph - N/A   Partly Cloudy
6:21 AM 32.0 °F - 28.4 °F 87% 30.11 in 10.0 mi Calm Calm - N/A   Scattered Clouds
6:56 AM 30.0 °F - 28.0 °F 92% 30.01 in 10.0 mi Calm Calm - N/A   Scattered Clouds
7:25 AM 32.0 °F - 30.2 °F 93% 30.12 in 10.0 mi Calm Calm - N/A   Mostly Cloudy
7:31 AM 32.0 °F - 32.0 °F 100% 30.13 in 0.2 mi Calm Calm - N/A Fog Fog
7:56 AM 34.0 °F - 32.0 °F 92% 30.04 in 0.1 mi Calm Calm - 0.01 in Fog Fog
8:56 AM 36.0 °F - 35.1 °F 97% 30.04 in 0.1 mi Calm Calm - N/A Fog Fog
9:30 AM 37.4 °F - 37.4 °F 100% 30.14 in 0.2 mi Calm Calm - N/A   Overcast
9:40 AM 39.2 °F 35.0 °F 35.6 °F 87% 30.15 in 3.0 mi North 5.8 mph - N/A   Overcast
9:56 AM 39.0 °F 36.8 °F 37.0 °F 93% 30.05 in 10.0 mi North 3.5 mph - N/A   Mostly Cloudy
10:56 AM 45.0 °F 41.8 °F 37.9 °F 76% 30.05 in 10.0 mi Variable 5.8 mph - N/A   Scattered Clouds
11:56 AM 50.0 °F - 35.1 °F 57% 30.03 in 10.0 mi Variable 4.6 mph - N/A   Scattered Clouds
12:56 PM 51.1 °F - 34.0 °F 52% 30.01 in 10.0 mi Variable 4.6 mph - N/A   Scattered Clouds
1:56 PM 53.1 °F - 33.1 °F 47% 29.99 in 10.0 mi SE 4.6 mph - N/A   Scattered Clouds
2:56 PM 54.0 °F - 30.9 °F 41% 29.98 in 10.0 mi Calm Calm - N/A   Scattered Clouds
3:56 PM 55.9 °F - 30.0 °F 37% 29.96 in 10.0 mi East 4.6 mph - N/A   Scattered Clouds
4:56 PM 55.0 °F - 19.9 °F 25% 29.95 in 10.0 mi Calm Calm - N/A   Partly Cloudy
5:56 PM 50.0 °F - 30.9 °F 48% 29.93 in 10.0 mi East 5.8 mph - N/A   Partly Cloudy
6:56 PM 45.0 °F 42.6 °F 32.0 °F 60% 29.94 in 10.0 mi North 4.6 mph - N/A   Clear
7:56 PM 42.1 °F 38.4 °F 32.0 °F 67% 29.94 in 10.0 mi NE 5.8 mph - N/A   Clear
8:56 PM 42.1 °F 38.4 °F 32.0 °F 67% 29.94 in 10.0 mi NE 5.8 mph - N/A   Clear
9:56 PM 39.9 °F 35.1 °F 32.0 °F 73% 29.93 in 10.0 mi East 6.9 mph - N/A   Clear
10:56 PM 42.1 °F 37.7 °F 30.0 °F 62% 29.92 in 10.0 mi ESE 6.9 mph - N/A   Clear
11:56 PM 39.0 °F - 30.0 °F 70% 29.92 in 10.0 mi Calm Calm - N/A   Clear